TimeAKST,TemperatureF,Dew PointF,Humidity,Sea Level PressureIn,VisibilityMPH,Wind Direction,Wind SpeedMPH,Gust SpeedMPH,PrecipitationIn,Events,Conditions,WindDirDegrees,DateUTC
12:16 AM,-9999,-9999,N/A,28.80,10.0,SE,21.9,27.6,N/A,,Partly Cloudy,140,2012-12-09 09:16:00
12:36 AM,-9999,-9999,N/A,28.81,10.0,SSE,21.9,28.8,N/A,,Mostly Cloudy,150,2012-12-09 09:36:00
12:56 AM,-9999,-9999,N/A,28.81,10.0,SSE,20.7,28.8,N/A,,Mostly Cloudy,150,2012-12-09 09:56:00
1:16 AM,-9999,-9999,N/A,28.81,10.0,SSE,19.6,26.5,N/A,,Mostly Cloudy,150,2012-12-09 10:16:00
1:36 AM,-9999,-9999,N/A,28.81,10.0,SSE,19.6,27.6,N/A,,Overcast,150,2012-12-09 10:36:00
1:56 AM,-9999,-9999,N/A,28.81,10.0,SSE,23.0,-,N/A,,Overcast,150,2012-12-09 10:56:00
2:16 AM,-9999,-9999,N/A,28.82,10.0,SSE,19.6,-,N/A,,Mostly Cloudy,150,2012-12-09 11:16:00
2:56 AM,-9999,-9999,N/A,28.82,10.0,SSE,23.0,31.1,N/A,,Overcast,150,2012-12-09 11:56:00
3:16 AM,-9999,-9999,N/A,28.83,10.0,SSE,20.7,27.6,N/A,,Overcast,150,2012-12-09 12:16:00
3:36 AM,-9999,-9999,N/A,28.84,10.0,SSE,20.7,26.5,N/A,,Overcast,150,2012-12-09 12:36:00
3:56 AM,-9999,-9999,N/A,28.86,10.0,SSE,18.4,-,N/A,,Overcast,160,2012-12-09 12:56:00
4:16 AM,-9999,-9999,N/A,28.87,10.0,SSE,18.4,24.2,N/A,,Overcast,160,2012-12-09 13:16:00
4:36 AM,-9999,-9999,N/A,28.88,10.0,SSE,21.9,26.5,N/A,,Overcast,160,2012-12-09 13:36:00
4:56 AM,-9999,-9999,N/A,28.90,10.0,SSE,19.6,-,N/A,,Overcast,160,2012-12-09 13:56:00
5:16 AM,-9999,-9999,N/A,28.91,10.0,South,16.1,-,N/A,,Overcast,170,2012-12-09 14:16:00
5:36 AM,-9999,-9999,N/A,28.92,10.0,SSE,15.0,-,N/A,,Overcast,160,2012-12-09 14:36:00
5:56 AM,-9999,-9999,N/A,28.94,10.0,SSE,19.6,23.0,N/A,,Overcast,160,2012-12-09 14:56:00
6:16 AM,-9999,-9999,N/A,28.96,10.0,SSE,18.4,-,N/A,,Overcast,160,2012-12-09 15:16:00
6:36 AM,-9999,-9999,N/A,28.98,10.0,South,11.5,-,N/A,,Overcast,180,2012-12-09 15:36:00
6:56 AM,-9999,-9999,N/A,29.00,10.0,South,9.2,-,N/A,,Overcast,170,2012-12-09 15:56:00
7:16 AM,-9999,-9999,N/A,29.01,10.0,SSW,10.4,-,N/A,,Overcast,200,2012-12-09 16:16:00
7:36 AM,-9999,-9999,N/A,29.04,10.0,SW,9.2,-,N/A,,Overcast,220,2012-12-09 16:36:00
7:56 AM,-9999,-9999,N/A,29.05,10.0,SW,13.8,-,N/A,,Overcast,220,2012-12-09 16:56:00
8:16 AM,-9999,-9999,N/A,29.08,10.0,WSW,15.0,-,N/A,,Overcast,250,2012-12-09 17:16:00
8:36 AM,-9999,-9999,N/A,29.09,10.0,WSW,12.7,-,N/A,,Overcast,240,2012-12-09 17:36:00
8:56 AM,-9999,-9999,N/A,29.10,10.0,WSW,17.3,20.7,N/A,,Overcast,240,2012-12-09 17:56:00
9:16 AM,-9999,-9999,N/A,29.12,10.0,WSW,18.4,-,N/A,,Overcast,240,2012-12-09 18:16:00
9:36 AM,-9999,-9999,N/A,29.14,10.0,SW,20.7,27.6,N/A,,Overcast,230,2012-12-09 18:36:00
9:56 AM,-9999,-9999,N/A,29.16,10.0,SW,23.0,28.8,N/A,,Overcast,230,2012-12-09 18:56:00
10:16 AM,-9999,-9999,N/A,29.18,10.0,SW,23.0,-,N/A,,Overcast,220,2012-12-09 19:16:00
10:36 AM,-9999,-9999,N/A,29.20,10.0,SW,21.9,27.6,N/A,,Overcast,220,2012-12-09 19:36:00
10:56 AM,-9999,-9999,N/A,29.21,10.0,SW,25.3,29.9,N/A,,Overcast,230,2012-12-09 19:56:00
11:16 AM,35.6,32.0,87,29.24,10.0,SW,24.2,-,N/A,,Overcast,220,2012-12-09 20:16:00
11:36 AM,-9999,-9999,N/A,29.25,10.0,SW,19.6,25.3,N/A,,Overcast,220,2012-12-09 20:36:00
11:56 AM,-9999,-9999,N/A,29.26,10.0,SW,21.9,27.6,N/A,,Overcast,220,2012-12-09 20:56:00
12:16 PM,-9999,-9999,N/A,29.27,10.0,SW,23.0,27.6,N/A,,Overcast,230,2012-12-09 21:16:00
12:36 PM,-9999,-9999,N/A,29.30,10.0,SW,20.7,25.3,N/A,,Overcast,230,2012-12-09 21:36:00
12:56 PM,-9999,-9999,N/A,29.30,10.0,SW,19.6,26.5,N/A,,Overcast,230,2012-12-09 21:56:00
1:16 PM,-9999,-9999,N/A,29.32,10.0,WSW,23.0,28.8,N/A,,Overcast,240,2012-12-09 22:16:00
1:36 PM,-9999,-9999,N/A,29.34,10.0,SW,20.7,26.5,N/A,,Overcast,230,2012-12-09 22:36:00
1:56 PM,-9999,-9999,N/A,29.35,10.0,SSW,16.1,-,N/A,,Overcast,210,2012-12-09 22:56:00
2:16 PM,-9999,-9999,N/A,29.36,10.0,SSW,17.3,-,N/A,,Overcast,210,2012-12-09 23:16:00
2:36 PM,-9999,-9999,N/A,29.37,10.0,SW,15.0,-,N/A,,Overcast,220,2012-12-09 23:36:00
2:56 PM,-9999,-9999,N/A,29.37,10.0,SW,17.3,-,N/A,,Overcast,220,2012-12-09 23:56:00
3:16 PM,-9999,-9999,N/A,29.38,10.0,SW,17.3,-,0.01,,Overcast,220,2012-12-10 00:16:00
3:36 PM,-9999,-9999,N/A,29.39,10.0,SW,15.0,-,0.03,,Overcast,220,2012-12-10 00:36:00
3:56 PM,-9999,-9999,N/A,29.40,10.0,SSW,16.1,-,0.03,,Overcast,210,2012-12-10 00:56:00
4:16 PM,-9999,-9999,N/A,29.41,10.0,SSW,16.1,-,N/A,,Overcast,210,2012-12-10 01:16:00
4:36 PM,-9999,-9999,N/A,29.42,10.0,SW,17.3,-,N/A,,Overcast,220,2012-12-10 01:36:00
4:56 PM,-9999,-9999,N/A,29.44,10.0,SW,13.8,-,N/A,,Overcast,220,2012-12-10 01:56:00
5:16 PM,-9999,-9999,N/A,29.45,10.0,South,12.7,-,N/A,,Scattered Clouds,190,2012-12-10 02:16:00
5:36 PM,-9999,-9999,N/A,29.45,10.0,South,15.0,-,N/A,,Clear,190,2012-12-10 02:36:00
5:56 PM,-9999,-9999,N/A,29.46,10.0,SSW,13.8,-,N/A,,Scattered Clouds,210,2012-12-10 02:56:00
6:16 PM,-9999,-9999,N/A,29.46,10.0,SSW,12.7,-,N/A,,Partly Cloudy,200,2012-12-10 03:16:00
6:36 PM,-9999,-9999,N/A,29.46,10.0,SSW,13.8,18.4,N/A,,Clear,200,2012-12-10 03:36:00
6:56 PM,-9999,-9999,N/A,29.47,10.0,SSW,11.5,-,N/A,,Partly Cloudy,200,2012-12-10 03:56:00
7:16 PM,-9999,-9999,N/A,29.48,10.0,SSW,10.4,-,N/A,,Mostly Cloudy,210,2012-12-10 04:16:00
7:36 PM,-9999,-9999,N/A,29.48,10.0,SSW,17.3,20.7,N/A,,Scattered Clouds,210,2012-12-10 04:36:00
7:56 PM,-9999,-9999,N/A,29.49,10.0,SW,12.7,18.4,N/A,,Mostly Cloudy,220,2012-12-10 04:56:00
8:16 PM,-9999,-9999,N/A,29.50,10.0,SW,13.8,-,N/A,,Overcast,230,2012-12-10 05:16:00
8:36 PM,-9999,-9999,N/A,29.50,10.0,SW,17.3,-,N/A,,Overcast,230,2012-12-10 05:36:00
8:56 PM,-9999,-9999,N/A,29.52,10.0,SW,15.0,-,N/A,,Overcast,220,2012-12-10 05:56:00
9:16 PM,-9999,-9999,N/A,29.52,10.0,SSW,13.8,-,N/A,,Overcast,200,2012-12-10 06:16:00
9:36 PM,-9999,-9999,N/A,29.52,10.0,SSW,11.5,-,N/A,,Overcast,200,2012-12-10 06:36:00
9:56 PM,-9999,-9999,N/A,29.52,10.0,South,10.4,-,N/A,,Overcast,190,2012-12-10 06:56:00
10:16 PM,-9999,-9999,N/A,29.52,10.0,South,9.2,-,N/A,,Overcast,190,2012-12-10 07:16:00
10:36 PM,-9999,-9999,N/A,29.52,10.0,SSE,8.1,-,N/A,,Overcast,160,2012-12-10 07:36:00
10:56 PM,-9999,-9999,N/A,29.52,10.0,SSE,9.2,-,N/A,,Overcast,160,2012-12-10 07:56:00
11:16 PM,-9999,-9999,N/A,29.53,10.0,South,9.2,-,N/A,,Overcast,170,2012-12-10 08:16:00
11:56 PM,-9999,-9999,N/A,29.53,10.0,South,8.1,-,N/A,,Overcast,180,2012-12-10 08:56:00